GW0392 Weather Reports


Display with metric or nautical units.
time (UTC)temp
F
wind
direction
speed
MPH
gust
MPH
rain 1hr
in
rain 24hr
in
rain mn
in
humidity
%
barometer
mb
20260504081708 45 226 0.0 0.0 0.00 0.00 0.00 94 1017.2
20260504081205 45 226 0.0 0.0 0.00 0.00 0.00 94 1017.3
20260504080701 45 226 0.0 0.0 0.00 0.00 0.00 95 1017.4
20260504080157 45 226 0.0 0.0 0.00 0.00 0.00 95 1017.1
20260504070125 45 223 0.0 0.0 0.00 0.00 0.00 92 1017.3
20260504050514 48 226 0.0 0.0 0.00 0.00 0.00 88 1018.1
20260504050011 48 226 0.0 0.0 0.00 0.00 0.00 87 1018.1
20260504045508 48 227 0.0 0.0 0.00 0.00 0.00 87 1017.9
20260504045003 48 227 0.0 0.0 0.00 0.00 0.00 87 1018.1
20260504044501 48 227 0.0 0.0 0.00 0.00 0.00 87 1017.9
20260504043958 48 227 0.0 0.0 0.00 0.00 0.00 86 1017.9
20260504043455 48 227 0.0 0.0 0.00 0.00 0.00 86 1018.0
20260504042952 48 226 0.0 0.0 0.00 0.00 0.00 85 1018.1
20260504042448 49 227 0.0 0.0 0.00 0.00 0.00 85 1017.9
20260504041945 49 226 0.0 0.0 0.00 0.00 0.00 84 1018.0
20260504041441 50 227 0.0 0.0 0.00 0.00 0.00 84 1018.1
20260504040937 50 227 0.0 0.0 0.00 0.00 0.00 84 1018.2
20260504040436 50 227 0.0 0.0 0.00 0.00 0.00 83 1018.0
20260504035931 50 226 0.0 0.0 0.00 0.00 0.00 82 1018.2
20260504035429 50 227 0.0 0.0 0.00 0.00 0.00 83 1018.1
20260504034925 50 226 0.0 0.0 0.00 0.00 0.00 82 1018.1
20260504034423 50 227 0.0 0.0 0.00 0.00 0.00 83 1017.9
20260504033920 50 226 0.0 0.0 0.00 0.00 0.00 82 1018.3
20260504033418 50 227 0.0 0.0 0.00 0.00 0.00 82 1018.1
20260504032914 50 227 0.0 0.0 0.00 0.00 0.00 80 1018.0
20260504032411 50 226 0.0 0.0 0.00 0.00 0.00 81 1017.9
20260504031908 50 226 0.0 0.0 0.00 0.00 0.00 81 1018.0
20260504031405 51 226 0.0 0.0 0.00 0.00 0.00 81 1017.9
20260504030901 51 226 0.0 0.0 0.00 0.00 0.00 80 1018.2
20260504030359 51 227 0.0 0.0 0.00 0.00 0.00 81 1018.0
20260504025854 51 227 0.0 0.0 0.00 0.00 0.00 80 1017.9
20260504025352 51 227 0.0 0.0 0.00 0.00 0.00 79 1017.9
20260504024848 52 225 0.0 0.0 0.00 0.00 0.00 78 1017.8
20260504024345 52 226 0.0 0.0 0.00 0.00 0.00 79 1017.8
20260504023842 52 226 0.0 0.0 0.00 0.00 0.00 77 1017.4
20260504023339 52 226 0.0 0.0 0.00 0.00 0.00 77 1017.4
20260504022834 52 221 0.0 0.0 0.00 0.00 0.00 76 1017.4
20260504022331 53 215 0.0 0.0 0.00 0.00 0.00 75 1017.5
20260504021828 53 222 0.0 0.0 0.00 0.00 0.00 76 1017.7
20260504021325 53 221 0.0 0.0 0.00 0.00 0.00 77 1017.2
20260504020822 53 221 0.0 0.0 0.00 0.00 0.00 78 1017.4
20260504020319 53 222 0.0 0.0 0.00 0.00 0.00 77 1017.7
20260504015815 53 222 0.0 0.0 0.00 0.00 0.00 77 1017.3
20260504015311 53 222 0.0 0.0 0.00 0.00 0.00 77 1017.3
20260504014808 53 222 0.0 0.0 0.00 0.00 0.00 79 1017.3
20260504014303 53 222 0.0 0.0 0.00 0.00 0.00 78 1017.3
20260504013801 53 222 0.0 0.0 0.00 0.00 0.00 78 1017.3
20260504013259 54 222 0.0 0.0 0.00 0.00 0.00 76 1017.1
20260504012755 54 222 0.0 0.0 0.00 0.00 0.00 76 1017.2
20260504012253 54 223 0.0 0.0 0.00 0.00 0.00 75 1017.1
20260504011750 55 223 0.0 0.0 0.00 0.00 0.00 74 1017.1
20260504011247 55 223 0.0 0.0 0.00 0.00 0.00 73 1017.0
20260504010743 55 223 0.0 0.0 0.00 0.00 0.00 73 1016.7
20260504010238 56 223 0.0 0.0 0.00 0.00 0.00 71 1016.7
20260504005735 56 223 0.0 0.0 0.00 0.00 0.00 70 1016.9
20260504005232 57 223 0.0 0.0 0.00 0.00 0.00 69 1016.9
20260504004730 57 223 0.0 0.0 0.00 0.00 0.00 69 1016.8
20260504004227 57 223 0.0 0.0 0.00 0.00 0.00 69 1016.6
20260504003723 58 226 0.0 0.0 0.00 0.00 0.00 67 1016.7
20260504003221 59 223 0.0 0.0 0.00 0.00 0.00 67 1016.7
20260504002717 60 230 0.0 0.0 0.00 0.00 0.00 63 1016.5
20260504002214 60 230 0.0 0.0 0.00 0.00 0.00 60 1016.6
20260504001712 61 230 0.0 0.0 0.00 0.00 0.00 61 1016.6
20260504001209 61 230 0.0 0.0 0.00 0.00 0.00 57 1016.9
20260504000705 62 230 0.0 0.0 0.00 0.00 0.00 57 1016.8
20260504000204 63 230 0.0 0.0 0.00 0.00 0.00 54 1016.8
20260503235701 63 231 0.0 0.0 0.00 0.00 0.00 52 1016.7
20260503235157 64 230 0.0 0.0 0.00 0.00 0.00 52 1016.8
20260503234655 64 231 0.0 0.0 0.00 0.00 0.00 52 1016.7
20260503234153 65 229 0.0 0.0 0.00 0.00 0.00 52 1016.7
20260503233649 66 222 1.0 2.0 0.00 0.00 0.00 45 1016.8
20260503233145 66 220 0.0 0.0 0.00 0.00 0.00 46 1016.5
20260503232642 67 223 0.0 0.0 0.00 0.00 0.00 45 1016.6
20260503232140 67 223 0.0 0.0 0.00 0.00 0.00 45 1016.5
20260503231638 67 215 1.0 2.0 0.00 0.00 0.00 44 1016.7
20260503231134 67 225 0.0 1.0 0.00 0.00 0.00 45 1016.7
20260503230631 67 216 0.0 5.0 0.00 0.00 0.00 44 1016.7
20260503230128 67 221 0.0 1.0 0.00 0.00 0.00 44 1016.7
20260503225626 67 197 1.0 2.0 0.00 0.00 0.00 42 1016.9
20260503225125 68 200 3.0 3.0 0.00 0.00 0.00 43 1016.9
20260503224623 68 227 0.0 2.0 0.00 0.00 0.00 43 1016.7
20260503224121 68 196 1.0 2.0 0.00 0.00 0.00 43 1016.8
20260503223618 67 220 1.0 2.0 0.00 0.00 0.00 44 1017.0
20260503223114 68 225 0.0 1.0 0.00 0.00 0.00 43 1016.7
20260503222612 68 181 0.0 1.0 0.00 0.00 0.00 42 1016.9
20260503222109 68 233 0.0 0.0 0.00 0.00 0.00 43 1017.1
20260503221608 68 220 0.0 1.0 0.00 0.00 0.00 44 1017.0
20260503221105 68 233 1.0 2.0 0.00 0.00 0.00 43 1017.2
20260503220601 68 231 0.0 0.0 0.00 0.00 0.00 44 1017.3
20260503220058 68 209 2.0 2.0 0.00 0.00 0.00 42 1017.1
20260503215555 68 219 0.0 2.0 0.00 0.00 0.00 42 1017.0
20260503215052 68 231 0.0 1.0 0.00 0.00 0.00 42 1016.9
20260503214550 68 236 1.0 1.0 0.00 0.00 0.00 43 1016.9
20260503214046 68 216 1.0 3.0 0.00 0.00 0.00 42 1017.1
20260503213545 68 226 1.0 1.0 0.00 0.00 0.00 42 1017.3
20260503213041 68 144 3.0 7.0 0.00 0.00 0.00 40 1017.4
20260503212538 68 194 3.0 3.0 0.00 0.00 0.00 42 1017.3
20260503212036 68 224 0.0 0.0 0.00 0.00 0.00 43 1017.3
20260503211533 68 216 1.0 2.0 0.00 0.00 0.00 41 1017.4
20260503211028 67 181 2.0 5.0 0.00 0.00 0.00 41 1017.7
20260503210525 68 167 2.0 6.0 0.00 0.00 0.00 40 1017.8
20260503210021 68 220 0.0 1.0 0.00 0.00 0.00 43 1017.7
20260503205518 68 227 1.0 2.0 0.00 0.00 0.00 43 1018.1
20260503205014 67 192 2.0 7.0 0.00 0.00 0.00 42 1017.8
20260503204512 67 198 2.0 6.0 0.00 0.00 0.00 43 1018.1
20260503204008 67 220 1.0 2.0 0.00 0.00 0.00 41 1018.2
20260503203506 68 193 1.0 2.0 0.00 0.00 0.00 41 1018.2
20260503203002 68 219 0.0 5.0 0.00 0.00 0.00 45 1018.2
20260503202500 67 229 0.0 2.0 0.00 0.00 0.00 42 1018.2
20260503201958 68 226 2.0 2.0 0.00 0.00 0.00 43 1018.4
20260503201456 67 193 2.0 5.0 0.00 0.00 0.00 42 1018.5
20260503200953 68 222 1.0 2.0 0.00 0.00 0.00 41 1018.7
20260503200449 68 215 1.0 1.0 0.00 0.00 0.00 42 1018.5
20260503195946 66 235 1.0 3.0 0.00 0.00 0.00 44 1018.8
20260503195443 67 208 4.0 9.0 0.00 0.00 0.00 41 1019.1
20260503194940 67 278 2.0 2.0 0.00 0.00 0.00 41 1018.8
20260503194437 66 207 3.0 7.0 0.00 0.00 0.00 41 1019.2
20260503193932 67 140 3.0 5.0 0.00 0.00 0.00 41 1019.1
20260503193428 67 228 1.0 3.0 0.00 0.00 0.00 38 1019.3
20260503192923 67 348 1.0 3.0 0.00 0.00 0.00 37 1019.4
20260503192420 68 224 1.0 2.0 0.00 0.00 0.00 38 1019.4
20260503191916 67 213 2.0 2.0 0.00 0.00 0.00 37 1019.4
20260503191414 67 224 1.0 2.0 0.00 0.00 0.00 38 1019.4
20260503190910 67 230 0.0 3.0 0.00 0.00 0.00 36 1019.7
20260503190408 68 205 0.0 1.0 0.00 0.00 0.00 38 1019.5
20260503185904 67 233 0.0 3.0 0.00 0.00 0.00 37 1019.7
20260503185400 67 141 3.0 6.0 0.00 0.00 0.00 37 1019.8
20260503184900 67 228 0.0 3.0 0.00 0.00 0.00 38 1020.0
20260503184356 67 196 2.0 5.0 0.00 0.00 0.00 38 1020.0
20260503183852 67 221 1.0 1.0 0.00 0.00 0.00 43 1020.0
20260503183349 66 228 0.0 5.0 0.00 0.00 0.00 37 1020.1
20260503182847 67 229 1.0 6.0 0.00 0.00 0.00 37 1020.0
20260503182346 67 218 1.0 2.0 0.00 0.00 0.00 40 1020.0
20260503181842 66 174 1.0 2.0 0.00 0.00 0.00 42 1020.0
20260503181339 66 172 2.0 5.0 0.00 0.00 0.00 40 1020.3
20260503180836 65 225 2.0 3.0 0.00 0.00 0.00 43 1020.2
20260503180334 64 253 2.0 2.0 0.00 0.00 0.00 42 1020.1
20260503175830 66 231 0.0 1.0 0.00 0.00 0.00 41 1020.2
20260503175328 65 223 0.0 2.0 0.00 0.00 0.00 46 1020.4
20260503174823 64 188 3.0 7.0 0.00 0.00 0.00 46 1020.5
20260503174322 65 110 4.0 8.0 0.00 0.00 0.00 45 1020.4
20260503173817 64 227 0.0 2.0 0.00 0.00 0.00 46 1020.5
20260503173313 64 212 0.0 3.0 0.00 0.00 0.00 46 1021.0
20260503172810 65 176 3.0 3.0 0.00 0.00 0.00 46 1020.9
20260503172308 64 228 0.0 1.0 0.00 0.00 0.00 49 1020.9
20260503171804 63 230 0.0 2.0 0.00 0.00 0.00 49 1021.2
20260503171301 63 250 1.0 2.0 0.00 0.00 0.00 48 1021.3
20260503170758 63 240 0.0 2.0 0.00 0.00 0.00 48 1021.3
20260503170254 62 229 1.0 3.0 0.00 0.00 0.00 50 1021.5
20260503160217 60 216 3.0 3.0 0.00 0.00 0.00 51 1022.2
20260503150647 58 234 1.0 3.0 0.00 0.00 0.00 55 1022.3
20260503150143 58 226 0.0 1.0 0.00 0.00 0.00 56 1022.2
20260503140107 54 235 0.0 1.0 0.00 0.00 0.00 65 1022.4
20260503131036 50 229 0.0 1.0 0.00 0.00 0.00 88 1022.1
20260503130534 49 222 0.0 0.0 0.00 0.00 0.00 87 1022.0
20260503110424 43 223 0.0 0.0 0.00 0.00 0.00 97 1021.2
20260503090315 43 227 0.0 0.0 0.00 0.00 0.00 96 1019.9